• In Uzbekistan
  • List of Countries
  • For 7 days
  • Water Temperature
  • Satellite Maps
  • Weather Map
  • Weather Widgets
  • user-avatar
    Login

    Hourly Weather La Rioja

    Today, 20 February, Tuesday

    Time Temperature Precipitation Wind Pressure Humidity
    00:00 +28°C° 1.6 mm 2 mps 710 mmHg 55%
    01:00 +27°C° 1.6 mm 2 mps 710 mmHg 58%
    02:00 +27°C° 0 mm 1 mps 711 mmHg 61%
    03:00 +26°C° 0.5 mm 1 mps 710 mmHg 63%
    04:00 +26°C° 0.5 mm 1 mps 710 mmHg 64%
    05:00 +25°C° 0.5 mm 1 mps 710 mmHg 66%
    06:00 +26°C° 0.1 mm 1 mps 711 mmHg 63%
    07:00 +27°C° 0.1 mm 2 mps 711 mmHg 61%
    08:00 +27°C° 0 mm 2 mps 712 mmHg 60%
    09:00 +28°C° 0.1 mm 2 mps 712 mmHg 56%
    10:00 +30°C° 0.1 mm 3 mps 712 mmHg 52%
    11:00 +31°C° 0.1 mm 3 mps 712 mmHg 48%
    12:00 +33°C° 1 mm 3 mps 712 mmHg 45%
    13:00 +34°C° 1 mm 4 mps 712 mmHg 42%
    14:00 +35°C° 1 mm 4 mps 712 mmHg 39%
    15:00 +35°C° 0.6 mm 4 mps 712 mmHg 38%
    16:00 +35°C° 0.6 mm 4 mps 712 mmHg 38%
    17:00 +35°C° 0.6 mm 5 mps 712 mmHg 37%
    18:00 +33°C° 0.8 mm 4 mps 713 mmHg 42%
    19:00 +31°C° 0.8 mm 3 mps 713 mmHg 47%
    20:00 +30°C° 0.8 mm 2 mps 714 mmHg 52%
    21:00 +29°C° 2 mm 2 mps 715 mmHg 54%
    22:00 +28°C° 2 mm 2 mps 716 mmHg 57%
    23:00 +28°C° 2 mm 2 mps 716 mmHg 60%

    Tomorrow, 21 February, Wednesday

    Time Temperature Precipitation Wind Pressure Humidity
    00:00 +27°C° 2.3 mm 2 mps 717 mmHg 62%
    01:00 +27°C° 2.3 mm 2 mps 717 mmHg 64%
    02:00 +26°C° 2.3 mm 2 mps 717 mmHg 66%
    03:00 +25°C° 1.6 mm 2 mps 717 mmHg 68%
    04:00 +25°C° 1.6 mm 1 mps 717 mmHg 70%
    05:00 +24°C° 1.6 mm 1 mps 717 mmHg 72%
    06:00 +25°C° 0.5 mm 1 mps 717 mmHg 68%
    07:00 +25°C° 0.5 mm 1 mps 718 mmHg 65%
    08:00 +26°C° 0.5 mm 1 mps 718 mmHg 61%
    09:00 +27°C° 0.2 mm 1 mps 718 mmHg 55%
    10:00 +29°C° 0.2 mm 2 mps 718 mmHg 49%
    11:00 +30°C° 0.2 mm 2 mps 718 mmHg 43%
    12:00 +31°C° 0.2 mm 3 mps 717 mmHg 40%
    13:00 +33°C° 0.2 mm 3 mps 716 mmHg 38%
    14:00 +34°C° 0.2 mm 3 mps 715 mmHg 35%
    15:00 +34°C° 0 mm 3 mps 715 mmHg 34%
    16:00 +35°C° 0 mm 4 mps 714 mmHg 32%
    17:00 +35°C° 0 mm 4 mps 713 mmHg 31%
    18:00 +34°C° 0 mm 3 mps 714 mmHg 34%
    19:00 +31°C° 0 mm 3 mps 714 mmHg 38%
    20:00 +30°C° 0 mm 2 mps 714 mmHg 41%
    21:00 +29°C° 0 mm 2 mps 715 mmHg 44%
    22:00 +28°C° 0 mm 2 mps 715 mmHg 46%
    23:00 +27°C° 0 mm 2 mps 716 mmHg 48%

    Day after tomorrow, 22 February, Thursday

    Time Temperature Precipitation Wind Pressure Humidity
    00:00 +27°C° 0 mm 2 mps 716 mmHg 49%
    01:00 +26°C° 0 mm 2 mps 715 mmHg 51%
    02:00 +26°C° 0 mm 2 mps 715 mmHg 52%
    03:00 +25°C° 0 mm 1 mps 715 mmHg 52%
    04:00 +25°C° 0 mm 1 mps 715 mmHg 53%
    05:00 +24°C° 0 mm 1 mps 715 mmHg 54%
    06:00 +26°C° 0 mm 1 mps 716 mmHg 50%
    07:00 +27°C° 0 mm 1 mps 716 mmHg 46%
    08:00 +28°C° 0 mm 2 mps 717 mmHg 42%
    09:00 +29°C° 0 mm 2 mps 717 mmHg 39%
    10:00 +30°C° 0 mm 2 mps 717 mmHg 37%
    11:00 +33°C° 0 mm 3 mps 717 mmHg 34%
    12:00 +34°C° 0 mm 3 mps 716 mmHg 32%
    13:00 +35°C° 0 mm 4 mps 715 mmHg 30%
    14:00 +36°C° 0 mm 4 mps 715 mmHg 28%
    15:00 +36°C° 0.1 mm 5 mps 714 mmHg 28%
    16:00 +36°C° 0.1 mm 5 mps 713 mmHg 28%
    17:00 +36°C° 0.1 mm 6 mps 713 mmHg 28%
    18:00 +34°C° 0 mm 5 mps 713 mmHg 32%
    19:00 +33°C° 0 mm 4 mps 713 mmHg 37%
    20:00 +30°C° 0 mm 3 mps 713 mmHg 41%
    21:00 +29°C° 0.1 mm 3 mps 713 mmHg 43%
    22:00 +29°C° 0.1 mm 3 mps 714 mmHg 44%
    23:00 +28°C° 0.1 mm 3 mps 714 mmHg 46%

    23 February, Friday

    Time Temperature Precipitation Wind Pressure Humidity
    00:00 +28°C° 0 mm 3 mps 714 mmHg 46%
    01:00 +27°C° 0 mm 2 mps 713 mmHg 47%
    02:00 +27°C° 0 mm 2 mps 713 mmHg 48%
    03:00 +26°C° 0 mm 2 mps 713 mmHg 49%
    04:00 +26°C° 0 mm 2 mps 712 mmHg 50%
    05:00 +25°C° 0 mm 2 mps 712 mmHg 51%
    06:00 +26°C° 0 mm 2 mps 713 mmHg 48%
    07:00 +27°C° 0 mm 2 mps 713 mmHg 45%
    08:00 +28°C° 0 mm 2 mps 713 mmHg 43%
    09:00 +29°C° 0 mm 3 mps 714 mmHg 40%
    10:00 +30°C° 0 mm 3 mps 714 mmHg 37%
    11:00 +33°C° 0 mm 3 mps 714 mmHg 35%
    12:00 +34°C° 0.1 mm 3 mps 714 mmHg 33%
    13:00 +35°C° 0.1 mm 4 mps 713 mmHg 31%
    14:00 +36°C° 0.1 mm 4 mps 713 mmHg 30%
    15:00 +36°C° 0.1 mm 5 mps 713 mmHg 30%
    16:00 +36°C° 0.1 mm 5 mps 712 mmHg 30%
    17:00 +36°C° 0.1 mm 6 mps 712 mmHg 29%
    18:00 +34°C° 0.2 mm 5 mps 713 mmHg 32%
    19:00 +33°C° 0.2 mm 4 mps 714 mmHg 35%
    20:00 +30°C° 0.2 mm 4 mps 714 mmHg 38%
    21:00 +29°C° 0.3 mm 3 mps 715 mmHg 41%
    22:00 +29°C° 0.3 mm 3 mps 716 mmHg 44%
    23:00 +28°C° 0.3 mm 2 mps 716 mmHg 46%

    24 February, Saturday

    Time Temperature Precipitation Wind Pressure Humidity
    00:00 +27°C° 0.7 mm 2 mps 716 mmHg 48%
    01:00 +27°C° 0.7 mm 2 mps 716 mmHg 51%
    02:00 +26°C° 0.7 mm 3 mps 716 mmHg 53%
    03:00 +25°C° 0.3 mm 3 mps 716 mmHg 56%
    04:00 +25°C° 0.3 mm 4 mps 716 mmHg 59%
    05:00 +23°C° 0.3 mm 4 mps 716 mmHg 63%
    06:00 +23°C° 0.1 mm 4 mps 716 mmHg 62%
    07:00 +25°C° 0.1 mm 4 mps 717 mmHg 62%
    08:00 +25°C° 0.1 mm 4 mps 717 mmHg 61%
    09:00 +26°C° 0 mm 4 mps 717 mmHg 57%
    10:00 +27°C° 0 mm 4 mps 717 mmHg 53%
    11:00 +28°C° 0 mm 3 mps 716 mmHg 48%
    12:00 +29°C° 0 mm 3 mps 716 mmHg 46%
    13:00 +30°C° 0 mm 3 mps 715 mmHg 44%
    14:00 +31°C° 0 mm 3 mps 714 mmHg 42%
    15:00 +31°C° 0 mm 3 mps 714 mmHg 41%
    16:00 +31°C° 0 mm 3 mps 714 mmHg 40%
    17:00 +32°C° 0 mm 2 mps 714 mmHg 39%
    18:00 +31°C° 0.1 mm 2 mps 714 mmHg 41%
    19:00 +30°C° 0.1 mm 2 mps 715 mmHg 44%
    20:00 +29°C° 0.1 mm 2 mps 715 mmHg 46%
    21:00 +28°C° 0.1 mm 2 mps 716 mmHg 48%
    22:00 +28°C° 0.1 mm 2 mps 716 mmHg 49%
    23:00 +28°C° 0.1 mm 2 mps 717 mmHg 51%

    25 February, Sunday

    Time Temperature Precipitation Wind Pressure Humidity
    00:00 +27°C° 0.5 mm 2 mps 717 mmHg 53%
    01:00 +26°C° 0.5 mm 2 mps 717 mmHg 56%
    02:00 +26°C° 0.5 mm 2 mps 716 mmHg 58%
    03:00 +25°C° 0.1 mm 2 mps 716 mmHg 59%
    04:00 +25°C° 0.1 mm 1 mps 716 mmHg 60%
    05:00 +25°C° 0.1 mm 1 mps 716 mmHg 61%
    06:00 +25°C° 0 mm 1 mps 716 mmHg 58%
    07:00 +26°C° 0 mm 1 mps 717 mmHg 55%
    08:00 +27°C° 0 mm 1 mps 717 mmHg 52%
    09:00 +28°C° 0.1 mm 2 mps 717 mmHg 49%
    10:00 +29°C° 0.1 mm 2 mps 717 mmHg 45%
    11:00 +30°C° 0.1 mm 2 mps 717 mmHg 42%
    12:00 +31°C° 0.2 mm 2 mps 716 mmHg 40%
    13:00 +32°C° 0.2 mm 2 mps 715 mmHg 38%
    14:00 +34°C° 0.2 mm 3 mps 715 mmHg 36%
    15:00 +34°C° 0.5 mm 3 mps 714 mmHg 36%
    16:00 +34°C° 0.5 mm 3 mps 714 mmHg 36%
    17:00 +34°C° 0.5 mm 4 mps 714 mmHg 36%
    18:00 +33°C° 0.6 mm 3 mps 714 mmHg 40%
    19:00 +31°C° 0.6 mm 3 mps 715 mmHg 44%
    20:00 +29°C° 0.6 mm 2 mps 715 mmHg 48%
    21:00 +29°C° 0.1 mm 2 mps 715 mmHg 50%
    22:00 +28°C° 0.1 mm 2 mps 716 mmHg 52%
    23:00 +27°C° 0.1 mm 1 mps 716 mmHg 53%
    Show more